| time (UTC) | temp F | wind direction | speed MPH | gust MPH | rain 1hr in | rain 24hr in | rain mn in | humidity % | barometer mb |
| 20260505090110 | 65 | 177 | 10.0 | 24.0 | 0.01 | 0.08 | 0.05 | 63 | 1001.1 |
| 20260505085550 | 65 | 78 | 7.0 | 18.0 | 0.00 | 0.07 | 0.04 | 64 | 1000.9 |
| 20260505085056 | 65 | 163 | 6.0 | 17.0 | 0.00 | 0.07 | 0.04 | 64 | 1000.9 |
| 20260505084505 | 65 | 188 | 6.0 | 19.0 | 0.00 | 0.07 | 0.04 | 64 | 1000.8 |
| 20260505084053 | 65 | 179 | 8.0 | 19.0 | 0.00 | 0.07 | 0.04 | 64 | 1000.7 |
| 20260505083558 | 65 | 180 | 5.0 | 22.0 | 0.00 | 0.07 | 0.04 | 64 | 1000.8 |
| 20260505083010 | 65 | 173 | 5.0 | 22.0 | 0.00 | 0.07 | 0.04 | 64 | 1000.5 |
| 20260505082522 | 65 | 163 | 7.0 | 21.0 | 0.00 | 0.07 | 0.04 | 64 | 1000.6 |
| 20260505082100 | 65 | 174 | 8.0 | 20.0 | 0.00 | 0.07 | 0.04 | 63 | 1000.7 |
| 20260505081510 | 65 | 176 | 7.0 | 18.0 | 0.00 | 0.07 | 0.04 | 64 | 1000.8 |
| 20260505081025 | 65 | 185 | 7.0 | 16.0 | 0.00 | 0.07 | 0.04 | 64 | 1000.8 |
| 20260505080604 | 65 | 208 | 9.0 | 18.0 | 0.00 | 0.07 | 0.04 | 64 | 1000.8 |
| 20260505080503 | 65 | 173 | 8.0 | 21.0 | 0.00 | 0.07 | 0.04 | 64 | 1000.8 |
| 20260505080051 | 65 | 184 | 8.0 | 21.0 | 0.00 | 0.07 | 0.04 | 65 | 1000.9 |
| 20260505075548 | 65 | 173 | 6.0 | 20.0 | 0.00 | 0.07 | 0.04 | 65 | 1000.8 |
| 20260505075058 | 65 | 99 | 7.0 | 20.0 | 0.01 | 0.07 | 0.04 | 66 | 1000.7 |
| 20260505074508 | 64 | 183 | 6.0 | 17.0 | 0.01 | 0.07 | 0.04 | 66 | 1000.7 |
| 20260505074019 | 64 | 144 | 9.0 | 18.0 | 0.01 | 0.07 | 0.04 | 67 | 1000.8 |
| 20260505073520 | 64 | 211 | 10.0 | 18.0 | 0.01 | 0.07 | 0.04 | 67 | 1000.7 |
| 20260505073051 | 64 | 140 | 5.0 | 18.0 | 0.01 | 0.07 | 0.04 | 68 | 1000.7 |
| 20260505072550 | 63 | 157 | 5.0 | 18.0 | 0.01 | 0.07 | 0.04 | 69 | 1000.6 |
| 20260505072100 | 63 | 169 | 8.0 | 22.0 | 0.01 | 0.07 | 0.04 | 71 | 1000.7 |
| 20260505071512 | 62 | 119 | 4.0 | 21.0 | 0.01 | 0.07 | 0.04 | 73 | 1000.9 |
| 20260505071024 | 62 | 140 | 2.0 | 9.0 | 0.01 | 0.07 | 0.04 | 76 | 1000.9 |
| 20260505070530 | 62 | 159 | 3.0 | 9.0 | 0.01 | 0.07 | 0.04 | 75 | 1001.0 |
| 20260505070049 | 63 | 177 | 3.0 | 16.0 | 0.01 | 0.07 | 0.04 | 74 | 1001.3 |
| 20260505065548 | 63 | 191 | 6.0 | 23.0 | 0.01 | 0.07 | 0.04 | 72 | 1001.4 |
| 20260505065029 | 65 | 189 | 4.0 | 23.0 | 0.00 | 0.06 | 0.03 | 69 | 1001.6 |
| 20260505064534 | 65 | 184 | 5.0 | 19.0 | 0.00 | 0.06 | 0.03 | 63 | 1001.7 |
| 20260505064058 | 65 | 204 | 5.0 | 19.0 | 0.00 | 0.06 | 0.03 | 62 | 1001.6 |
| 20260505063508 | 65 | 215 | 6.0 | 18.0 | 0.00 | 0.06 | 0.03 | 62 | 1001.4 |
| 20260505063036 | 65 | 192 | 7.0 | 18.0 | 0.00 | 0.06 | 0.03 | 63 | 1001.3 |
| 20260505062547 | 65 | 196 | 7.0 | 20.0 | 0.00 | 0.06 | 0.03 | 63 | 1001.6 |
| 20260505062053 | 65 | 180 | 6.0 | 20.0 | 0.00 | 0.06 | 0.03 | 63 | 1001.4 |
| 20260505061603 | 65 | 165 | 8.0 | 19.0 | 0.00 | 0.06 | 0.03 | 64 | 1001.4 |
| 20260505061041 | 65 | 171 | 7.0 | 22.0 | 0.01 | 0.06 | 0.03 | 64 | 1001.4 |
| 20260505060530 | 65 | 157 | 7.0 | 20.0 | 0.01 | 0.06 | 0.03 | 65 | 1001.1 |
| 20260505060035 | 64 | 173 | 5.0 | 14.0 | 0.01 | 0.06 | 0.03 | 66 | 1001.4 |
| 20260505055539 | 64 | 158 | 7.0 | 20.0 | 0.01 | 0.06 | 0.03 | 67 | 1001.4 |
| 20260505055050 | 64 | 221 | 6.0 | 24.0 | 0.01 | 0.06 | 0.03 | 68 | 1001.5 |
| 20260505054546 | 63 | 108 | 8.0 | 20.0 | 0.01 | 0.06 | 0.03 | 70 | 1001.5 |
| 20260505054050 | 62 | 91 | 8.0 | 23.0 | 0.01 | 0.06 | 0.03 | 73 | 1001.5 |
| 20260505053557 | 61 | 200 | 3.0 | 23.0 | 0.01 | 0.06 | 0.03 | 77 | 1001.7 |
| 20260505053004 | 59 | 196 | 3.0 | 8.0 | 0.01 | 0.06 | 0.03 | 82 | 1001.9 |
| 20260505052546 | 59 | 204 | 1.0 | 6.0 | 0.01 | 0.06 | 0.03 | 84 | 1002.0 |
| 20260505052030 | 58 | 184 | 0.0 | 4.0 | 0.01 | 0.06 | 0.03 | 85 | 1002.2 |
| 20260505051538 | 58 | 201 | 0.0 | 5.0 | 0.03 | 0.06 | 0.03 | 86 | 1002.3 |
| 20260505051042 | 58 | 211 | 0.0 | 7.0 | 0.02 | 0.05 | 0.02 | 86 | 1002.4 |
| 20260505050545 | 57 | 186 | 2.0 | 7.0 | 0.02 | 0.05 | 0.02 | 87 | 1002.4 |
| 20260505050123 | 57 | 208 | 0.0 | 2.0 | 0.02 | 0.05 | 0.02 | 86 | 1002.5 |
| 20260505041549 | 61 | 267 | 4.0 | 15.0 | 0.00 | 0.03 | 0.00 | 69 | 1003.9 |
| 20260505041046 | 62 | 248 | 5.0 | 16.0 | 0.00 | 0.03 | 0.00 | 65 | 1003.9 |
| 20260505040553 | 63 | 238 | 7.0 | 16.0 | 0.00 | 0.03 | 0.00 | 64 | 1003.8 |
| 20260505040059 | 64 | 257 | 8.0 | 18.0 | 0.00 | 0.03 | 0.03 | 63 | 1003.6 |
| 20260505035553 | 65 | 250 | 9.0 | 18.0 | 0.00 | 0.03 | 0.03 | 62 | 1003.5 |
| 20260505035056 | 65 | 238 | 6.0 | 14.0 | 0.00 | 0.03 | 0.03 | 61 | 1003.3 |
| 20260505034508 | 66 | 213 | 5.0 | 19.0 | 0.00 | 0.03 | 0.03 | 60 | 1002.8 |
| 20260505034015 | 66 | 188 | 2.0 | 13.0 | 0.00 | 0.03 | 0.03 | 61 | 1002.8 |
| 20260505033520 | 66 | 192 | 8.0 | 15.0 | 0.00 | 0.03 | 0.03 | 60 | 1002.6 |
| 20260505033037 | 66 | 188 | 6.0 | 17.0 | 0.00 | 0.03 | 0.03 | 60 | 1002.4 |
| 20260505032545 | 66 | 172 | 8.0 | 18.0 | 0.00 | 0.03 | 0.03 | 60 | 1002.3 |
| 20260505032055 | 66 | 146 | 5.0 | 19.0 | 0.00 | 0.03 | 0.03 | 61 | 1002.3 |
| 20260505031505 | 66 | 155 | 4.0 | 19.0 | 0.00 | 0.03 | 0.03 | 61 | 1002.3 |
| 20260505031014 | 65 | 155 | 6.0 | 21.0 | 0.00 | 0.03 | 0.03 | 62 | 1002.2 |
| 20260505030512 | 65 | 171 | 5.0 | 17.0 | 0.00 | 0.03 | 0.03 | 63 | 1002.0 |
| 20260505030054 | 65 | 148 | 5.0 | 17.0 | 0.00 | 0.03 | 0.03 | 63 | 1002.1 |
| 20260505025601 | 65 | 193 | 5.0 | 11.0 | 0.00 | 0.03 | 0.03 | 64 | 1002.2 |
| 20260505025503 | 65 | 159 | 5.0 | 11.0 | 0.00 | 0.03 | 0.03 | 64 | 1002.2 |
| 20260505025011 | 65 | 155 | 5.0 | 17.0 | 0.00 | 0.03 | 0.03 | 64 | 1002.3 |
| 20260505024520 | 64 | 164 | 6.0 | 17.0 | 0.00 | 0.03 | 0.03 | 64 | 1002.3 |
| 20260505024013 | 64 | 157 | 3.0 | 12.0 | 0.00 | 0.03 | 0.03 | 66 | 1002.3 |
| 20260505023601 | 64 | 199 | 5.0 | 12.0 | 0.00 | 0.03 | 0.03 | 66 | 1002.3 |
| 20260505023504 | 64 | 221 | 4.0 | 12.0 | 0.00 | 0.03 | 0.03 | 66 | 1002.3 |
| 20260505023010 | 64 | 146 | 5.0 | 11.0 | 0.01 | 0.03 | 0.03 | 66 | 1002.3 |
| 20260505022525 | 64 | 190 | 4.0 | 11.0 | 0.01 | 0.03 | 0.03 | 66 | 1002.4 |
| 20260505022022 | 64 | 161 | 5.0 | 11.0 | 0.01 | 0.03 | 0.03 | 67 | 1002.4 |
| 20260505021525 | 63 | 138 | 4.0 | 11.0 | 0.01 | 0.03 | 0.03 | 68 | 1002.5 |
| 20260505021028 | 63 | 217 | 5.0 | 9.0 | 0.01 | 0.03 | 0.03 | 69 | 1002.4 |
| 20260505020537 | 63 | 144 | 4.0 | 10.0 | 0.01 | 0.03 | 0.03 | 70 | 1002.4 |
| 20260505020006 | 62 | 151 | 4.0 | 10.0 | 0.01 | 0.03 | 0.03 | 72 | 1002.3 |
| 20260505015523 | 62 | 169 | 3.0 | 9.0 | 0.01 | 0.03 | 0.03 | 73 | 1002.5 |
| 20260505015020 | 62 | 148 | 4.0 | 9.0 | 0.01 | 0.03 | 0.03 | 75 | 1002.4 |
| 20260505014524 | 61 | 161 | 4.0 | 7.0 | 0.01 | 0.03 | 0.03 | 76 | 1002.3 |
| 20260505014029 | 62 | 136 | 3.0 | 5.0 | 0.02 | 0.03 | 0.03 | 76 | 1002.4 |
| 20260505013536 | 62 | 155 | 2.0 | 6.0 | 0.03 | 0.03 | 0.03 | 74 | 1002.5 |
| 20260505013039 | 63 | 184 | 2.0 | 12.0 | 0.02 | 0.02 | 0.02 | 72 | 1002.6 |
| 20260505012542 | 63 | 153 | 4.0 | 14.0 | 0.02 | 0.02 | 0.02 | 71 | 1002.6 |
| 20260505012046 | 64 | 153 | 4.0 | 14.0 | 0.02 | 0.02 | 0.02 | 68 | 1002.4 |
| 20260505011603 | 64 | 132 | 4.0 | 9.0 | 0.02 | 0.02 | 0.02 | 66 | 1002.6 |
| 20260505011055 | 64 | 181 | 3.0 | 10.0 | 0.02 | 0.02 | 0.02 | 65 | 1002.6 |
| 20260505010506 | 64 | 218 | 2.0 | 9.0 | 0.02 | 0.02 | 0.02 | 65 | 1002.6 |
| 20260505010058 | 64 | 227 | 2.0 | 13.0 | 0.02 | 0.02 | 0.02 | 64 | 1002.6 |
| 20260505005510 | 65 | 167 | 4.0 | 15.0 | 0.02 | 0.02 | 0.02 | 63 | 1002.7 |
| 20260505005050 | 65 | 117 | 2.0 | 15.0 | 0.02 | 0.02 | 0.02 | 62 | 1002.8 |
| 20260505004556 | 67 | 246 | 5.0 | 10.0 | 0.02 | 0.02 | 0.02 | 59 | 1003.1 |
| 20260505004100 | 69 | 240 | 3.0 | 9.0 | 0.01 | 0.01 | 0.01 | 55 | 1003.0 |
| 20260505003516 | 69 | 176 | 3.0 | 9.0 | 0.00 | 0.00 | 0.00 | 47 | 1002.6 |
| 20260505003008 | 69 | 187 | 2.0 | 10.0 | 0.00 | 0.00 | 0.00 | 46 | 1002.1 |
| 20260505002556 | 69 | 209 | 1.0 | 9.0 | 0.00 | 0.00 | 0.00 | 47 | 1002.1 |
| 20260505002025 | 69 | 209 | 2.0 | 9.0 | 0.00 | 0.00 | 0.00 | 46 | 1002.1 |
| 20260505001526 | 69 | 184 | 3.0 | 8.0 | 0.00 | 0.00 | 0.00 | 45 | 1002.0 |
| 20260505001028 | 70 | 178 | 1.0 | 8.0 | 0.00 | 0.00 | 0.00 | 44 | 1002.0 |
| 20260505000532 | 70 | 179 | 3.0 | 8.0 | 0.00 | 0.00 | 0.00 | 43 | 1002.0 |
| 20260505000039 | 70 | 214 | 2.0 | 11.0 | 0.00 | 0.00 | 0.00 | 43 | 1002.1 |
| 20260504235542 | 70 | 186 | 3.0 | 11.0 | 0.00 | 0.00 | 0.00 | 43 | 1002.2 |
| 20260504235047 | 70 | 224 | 1.0 | 5.0 | 0.00 | 0.00 | 0.00 | 43 | 1002.3 |
| 20260504234612 | 71 | 191 | 0.0 | 9.0 | 0.00 | 0.00 | 0.00 | 42 | 1002.2 |
| 20260504234041 | 71 | 175 | 2.0 | 9.0 | 0.00 | 0.00 | 0.00 | 40 | 1002.3 |
| 20260504233549 | 71 | 216 | 2.0 | 8.0 | 0.00 | 0.00 | 0.00 | 40 | 1002.4 |
| 20260504233031 | 71 | 267 | 3.0 | 8.0 | 0.00 | 0.00 | 0.00 | 40 | 1002.4 |
| 20260504232514 | 71 | 192 | 3.0 | 12.0 | 0.00 | 0.00 | 0.00 | 39 | 1002.4 |
| 20260504232017 | 72 | 223 | 5.0 | 12.0 | 0.00 | 0.00 | 0.00 | 38 | 1002.4 |
| 20260504231509 | 72 | 213 | 7.0 | 17.0 | 0.00 | 0.00 | 0.00 | 38 | 1002.5 |
| 20260504231025 | 73 | 240 | 6.0 | 17.0 | 0.00 | 0.00 | 0.00 | 37 | 1002.5 |
| 20260504230532 | 73 | 252 | 5.0 | 13.0 | 0.00 | 0.00 | 0.00 | 38 | 1002.5 |
| 20260504230037 | 73 | 222 | 4.0 | 14.0 | 0.00 | 0.00 | 0.00 | 37 | 1002.5 |
| 20260504225518 | 73 | 264 | 5.0 | 14.0 | 0.00 | 0.00 | 0.00 | 37 | 1002.4 |
| 20260504225031 | 73 | 288 | 4.0 | 15.0 | 0.00 | 0.00 | 0.00 | 38 | 1002.6 |
| 20260504224536 | 73 | 219 | 3.0 | 12.0 | 0.00 | 0.00 | 0.00 | 38 | 1002.6 |
| 20260504224009 | 73 | 202 | 2.0 | 15.0 | 0.00 | 0.00 | 0.00 | 37 | 1002.6 |
| 20260504223522 | 73 | 171 | 8.0 | 15.0 | 0.00 | 0.00 | 0.00 | 38 | 1002.7 |
| 20260504223030 | 74 | 242 | 6.0 | 14.0 | 0.00 | 0.00 | 0.00 | 37 | 1002.7 |
| 20260504222537 | 74 | 292 | 5.0 | 12.0 | 0.00 | 0.00 | 0.00 | 36 | 1002.8 |
| 20260504222041 | 74 | 206 | 2.0 | 18.0 | 0.00 | 0.00 | 0.00 | 37 | 1002.7 |
| 20260504221549 | 74 | 277 | 5.0 | 18.0 | 0.00 | 0.00 | 0.00 | 37 | 1002.8 |
| 20260504221101 | 74 | 237 | 8.0 | 17.0 | 0.00 | 0.00 | 0.00 | 33 | 1002.7 |
| 20260504220508 | 75 | 258 | 7.0 | 16.0 | 0.00 | 0.00 | 0.00 | 33 | 1002.7 |
| 20260504220049 | 75 | 239 | 8.0 | 12.0 | 0.00 | 0.00 | 0.00 | 33 | 1002.7 |
| 20260504215555 | 74 | 241 | 5.0 | 16.0 | 0.00 | 0.00 | 0.00 | 35 | 1002.7 |
| 20260504215051 | 74 | 225 | 3.0 | 16.0 | 0.00 | 0.00 | 0.00 | 35 | 1002.8 |
| 20260504214554 | 74 | 129 | 6.0 | 14.0 | 0.00 | 0.00 | 0.00 | 35 | 1002.7 |
| 20260504214034 | 74 | 186 | 3.0 | 9.0 | 0.00 | 0.00 | 0.00 | 34 | 1002.6 |
| 20260504213515 | 74 | 237 | 4.0 | 17.0 | 0.00 | 0.00 | 0.00 | 32 | 1002.7 |
| 20260504213040 | 74 | 224 | 7.0 | 17.0 | 0.00 | 0.00 | 0.00 | 31 | 1002.7 |
| 20260504212532 | 74 | 218 | 6.0 | 16.0 | 0.00 | 0.00 | 0.00 | 31 | 1002.6 |
| 20260504212028 | 74 | 259 | 7.0 | 16.0 | 0.00 | 0.00 | 0.00 | 30 | 1002.7 |
| 20260504211534 | 74 | 156 | 6.0 | 15.0 | 0.00 | 0.00 | 0.00 | 31 | 1002.7 |
| 20260504211025 | 75 | 241 | 4.0 | 11.0 | 0.00 | 0.00 | 0.00 | 33 | 1002.8 |
| 20260504210534 | 74 | 212 | 4.0 | 12.0 | 0.00 | 0.00 | 0.00 | 32 | 1002.8 |
| 20260504210040 | 74 | 184 | 3.0 | 12.0 | 0.00 | 0.00 | 0.00 | 31 | 1002.6 |
| 20260504205549 | 74 | 256 | 4.0 | 13.0 | 0.00 | 0.00 | 0.00 | 33 | 1002.6 |
| 20260504205034 | 74 | 270 | 5.0 | 14.0 | 0.00 | 0.00 | 0.00 | 33 | 1002.7 |
| 20260504204540 | 74 | 232 | 6.0 | 14.0 | 0.00 | 0.00 | 0.00 | 33 | 1002.8 |
| 20260504204051 | 74 | 191 | 5.0 | 17.0 | 0.00 | 0.00 | 0.00 | 31 | 1002.8 |
| 20260504203603 | 74 | 233 | 3.0 | 17.0 | 0.00 | 0.00 | 0.00 | 33 | 1002.9 |
| 20260504203503 | 74 | 192 | 5.0 | 17.0 | 0.00 | 0.00 | 0.00 | 35 | 1002.8 |
| 20260504203057 | 74 | 244 | 7.0 | 22.0 | 0.00 | 0.00 | 0.00 | 33 | 1002.9 |
| 20260504202550 | 74 | 248 | 8.0 | 22.0 | 0.00 | 0.00 | 0.00 | 33 | 1003.0 |
| 20260504202058 | 74 | 238 | 7.0 | 18.0 | 0.00 | 0.00 | 0.00 | 33 | 1002.9 |
| 20260504201507 | 74 | 243 | 6.0 | 16.0 | 0.00 | 0.00 | 0.00 | 34 | 1003.1 |
| 20260504201022 | 75 | 300 | 5.0 | 15.0 | 0.00 | 0.00 | 0.00 | 35 | 1003.0 |
| 20260504200521 | 75 | 207 | 3.0 | 10.0 | 0.00 | 0.00 | 0.00 | 35 | 1003.2 |
| 20260504200029 | 74 | 205 | 4.0 | 14.0 | 0.00 | 0.00 | 0.00 | 34 | 1003.1 |
| 20260504195538 | 74 | 242 | 6.0 | 14.0 | 0.00 | 0.00 | 0.00 | 35 | 1003.3 |
| 20260504195043 | 74 | 257 | 3.0 | 12.0 | 0.00 | 0.00 | 0.00 | 36 | 1003.3 |
| 20260504194558 | 74 | 229 | 3.0 | 11.0 | 0.00 | 0.00 | 0.00 | 35 | 1003.4 |
| 20260504194058 | 74 | 163 | 5.0 | 14.0 | 0.00 | 0.00 | 0.00 | 35 | 1003.5 |
| 20260504193537 | 74 | 225 | 5.0 | 14.0 | 0.00 | 0.00 | 0.00 | 34 | 1003.6 |
| 20260504193051 | 74 | 163 | 4.0 | 13.0 | 0.00 | 0.00 | 0.00 | 35 | 1003.7 |
| 20260504192548 | 74 | 199 | 4.0 | 15.0 | 0.00 | 0.00 | 0.00 | 35 | 1003.7 |
| 20260504192051 | 74 | 242 | 7.0 | 15.0 | 0.00 | 0.00 | 0.00 | 34 | 1003.8 |
| 20260504191557 | 74 | 294 | 5.0 | 14.0 | 0.00 | 0.00 | 0.00 | 37 | 1003.8 |
| 20260504191001 | 74 | 236 | 4.0 | 14.0 | 0.00 | 0.00 | 0.00 | 36 | 1003.9 |
| 20260504190514 | 73 | 256 | 7.0 | 17.0 | 0.00 | 0.00 | 0.00 | 34 | 1003.9 |
| 20260504190116 | 74 | 244 | 5.0 | 17.0 | 0.00 | 0.00 | 0.00 | 34 | 1003.9 |
| 20260504185544 | 73 | 216 | 5.0 | 15.0 | 0.00 | 0.00 | 0.00 | 36 | 1003.9 |
| 20260504185035 | 73 | 244 | 8.0 | 15.0 | 0.00 | 0.00 | 0.00 | 34 | 1004.0 |
| 20260504184541 | 74 | 214 | 6.0 | 13.0 | 0.00 | 0.00 | 0.00 | 36 | 1004.1 |
| 20260504184045 | 73 | 234 | 5.0 | 20.0 | 0.00 | 0.00 | 0.00 | 39 | 1004.2 |
| 20260504183552 | 73 | 213 | 8.0 | 20.0 | 0.00 | 0.00 | 0.00 | 38 | 1004.3 |
| 20260504183058 | 74 | 233 | 10.0 | 18.0 | 0.00 | 0.00 | 0.00 | 37 | 1004.4 |
| 20260504182509 | 74 | 249 | 6.0 | 17.0 | 0.00 | 0.00 | 0.00 | 40 | 1004.4 |
| 20260504182020 | 73 | 182 | 5.0 | 17.0 | 0.00 | 0.00 | 0.00 | 36 | 1004.4 |
| 20260504181522 | 73 | 227 | 3.0 | 14.0 | 0.00 | 0.00 | 0.00 | 41 | 1004.5 |
| 20260504181027 | 73 | 256 | 5.0 | 14.0 | 0.00 | 0.00 | 0.00 | 38 | 1004.5 |
| 20260504180534 | 73 | 238 | 4.0 | 12.0 | 0.00 | 0.00 | 0.00 | 39 | 1004.6 |
| 20260504180040 | 72 | 224 | 5.0 | 17.0 | 0.00 | 0.00 | 0.00 | 40 | 1004.6 |
| 20260504175551 | 72 | 262 | 8.0 | 18.0 | 0.00 | 0.00 | 0.00 | 40 | 1004.8 |
| 20260504175059 | 72 | 260 | 4.0 | 18.0 | 0.00 | 0.00 | 0.00 | 40 | 1004.8 |
| 20260504174505 | 72 | 195 | 4.0 | 14.0 | 0.00 | 0.00 | 0.00 | 41 | 1004.9 |
| 20260504174001 | 72 | 217 | 5.0 | 14.0 | 0.00 | 0.00 | 0.00 | 43 | 1004.9 |
| 20260504173552 | 71 | 188 | 3.0 | 13.0 | 0.00 | 0.00 | 0.00 | 44 | 1004.9 |
| 20260504173057 | 71 | 263 | 4.0 | 14.0 | 0.00 | 0.00 | 0.00 | 42 | 1005.1 |
| 20260504172600 | 70 | 217 | 4.0 | 19.0 | 0.00 | 0.00 | 0.00 | 44 | 1005.2 |
| 20260504172501 | 70 | 240 | 7.0 | 19.0 | 0.00 | 0.00 | 0.00 | 44 | 1005.2 |
| 20260504172029 | 70 | 258 | 9.0 | 19.0 | 0.00 | 0.00 | 0.00 | 41 | 1005.3 |
| 20260504171536 | 70 | 250 | 5.0 | 11.0 | 0.00 | 0.00 | 0.00 | 44 | 1005.4 |
| 20260504171048 | 70 | 250 | 6.0 | 14.0 | 0.00 | 0.00 | 0.00 | 43 | 1005.4 |
| 20260504170547 | 69 | 187 | 7.0 | 19.0 | 0.00 | 0.00 | 0.00 | 44 | 1005.6 |
| 20260504151025 | 65 | 221 | 3.0 | 9.0 | 0.00 | 0.00 | 0.00 | 50 | 1006.7 |
| 20260504150532 | 64 | 234 | 4.0 | 10.0 | 0.00 | 0.00 | 0.00 | 50 | 1006.8 |
| 20260504141005 | 62 | 235 | 4.0 | 10.0 | 0.00 | 0.00 | 0.00 | 52 | 1006.8 |
| 20260504140516 | 61 | 211 | 3.0 | 12.0 | 0.00 | 0.00 | 0.00 | 51 | 1006.9 |
| 20260504130550 | 58 | 215 | 3.0 | 16.0 | 0.00 | 0.00 | 0.00 | 54 | 1007.5 |
| 20260504110556 | 53 | 169 | 4.0 | 18.0 | 0.00 | 0.00 | 0.00 | 56 | 1007.2 |
| 20260504110118 | 53 | 149 | 7.0 | 14.0 | 0.00 | 0.00 | 0.00 | 55 | 1007.3 |
| 20260504100518 | 53 | 202 | 6.0 | 16.0 | 0.00 | 0.00 | 0.00 | 56 | 1007.2 |